Weather in Urzhumskoye

Russia / Ulyanovsk Oblast     54°17′24″N   47°50′00″E
temp.,
°C
wind,
m/s
gust,
m/s
humid.,
%
clouds,
%
prec.,
mm/h
press.,
hPa
HPBL,
m
24 october, sun
sun2401:00+7sw61077100 0.3 1011546
04:00+6sw4108430 0.4 1010480
07:00+4w410881 0.0 1011378
10:00+5w611751 0.0 1011613
13:00+7w710555 0.0 10121211
16:00+7w695691 0.0 10131458
19:00+6wsw4862100 0.0 10141084
22:00+5wsw3780100 0.2 1013624
25 october, mon
mon2501:00+3wsw3794100 0.4 1013579
04:00+2w4896100 1.2 1014509
07:00+2nw4896100 0.3 1014589
10:00+2nw6995100 0.8 1017920
13:00+2nnw81070100 0.1 10201032
16:00+2nnw71061100 0.1 10231192
19:000nnw49675 0.0 1026416
22:00−1nw3775100 0.0 1027184
26 october, tue
tue2601:00−2w35775 0.0 1028113
04:00−3wsw388095 0.0 1028209
07:00−3wsw5127735 0.0 1027324
10:000wsw6136150 0.0 1026495
13:00+4wsw7135121 0.0 1024777
16:00+4wsw7135497 0.0 1023813
19:00+2wsw614639 0.0 1024544
22:00+2wsw6146699 0.0 1024455
27 october, wed
wed2701:00+1wsw61467100 0.0 1023402
04:00+1wsw61469100 0.0 1023385
07:00+1wsw61469100 0.0 1023385
10:00+3wsw6145914 0.0 1022467
13:00+7wsw7124538 0.0 1021687
16:00+7wsw714475 0.0 1020712
19:00+5sw715535 0.0 1020534
22:00+4sw716525 0.0 1019525
28 october, thu
thu2801:00+3sw7165020 0.0 1018536
04:00+3sw71650100 0.0 1016542
07:00+2wsw7167368 0.3 1016714
10:00+3w81584100 0.3 1017756
13:00+6w61171100 0.0 10181075
16:00+7w596870 0.0 10181010
19:00+5wsw4976100 0.0 1019353
22:00+5sw41075100 0.0 1018344